Brainerd, MN

6:29 PM CDT on May 24, 2018 (GMT -0500)
Brainerd-Crow Wing County Regional

Weather History for KBRD - October, 2010

Change the Weather History Date:

Friday, October 15, 2010

  Actual Average Record
Temperature  
Mean Temperature 45 °F 46 °F  
Max Temperature 60 °F 55 °F 82 °F (1929)
Min Temperature 30 °F 36 °F 16 °F (1937)
Degree Days  
Heating Degree Days 20 19  
Month to date heating degree days 245  
Cooling Degree Days 0 0  
Month to date cooling degree days 0  
Moisture  
Dew Point 33 °F    
Average Humidity 60    
Maximum Humidity 86    
Minimum Humidity 36    
Precipitation  
Precipitation 0.00 in 0.10 in 2.25 in (1984)
Month to date precipitation 1.62  
Snow  
Snow 0.00 in 0.00 in - ()
Month to date snowfall 0.0  
Snow Depth -    
Sea Level Pressure  
Sea Level Pressure 30.06 in    
Wind  
Wind Speed 4 mph (SSE)    
Max Wind Speed 13 mph    
Max Gust Speed -    
Visibility 10 miles    
Events      
T = Trace of Precipitation, MM = Missing Value Source: NWS Daily Summary

Daily Weather History Graph

Daily Weather History Graph

Search for Another Location

Airport or City:

Astronomy

Oct. 15, 2010 Rise Set
Actual Time 7:33 AM CDT 6:29 PM CDT
Civil Twilight 7:03 AM CDT 7:00 PM CDT
Nautical Twilight 6:28 AM CDT 7:35 PM CDT
Astronomical Twilight 5:53 AM CDT 8:09 PM CDT
Moon 3:15 PM CDT (10/15) 12:02 AM CDT (10/15)
Length of Visible Light 11h 56m
Length of Day
10h 56m
First Quarter, 58% of the Moon is Illuminated
Oct 15
First Quarter
Oct 22
Full
Oct 30
Last Quarter
Nov 5
New
Nov 13
First Quarter

Hourly Weather History & Observations

Time (CDT) Temp. Windchill Dew Point Humidity Pressure Visibility Wind Dir Wind Speed Gust Speed Precip Events Conditions
12:53 AM 46.0 °F 44.8 °F 34.0 °F 63% 30.07 in 10.0 mi North 3.5 mph - N/A   Partly Cloudy
1:53 AM 43.0 °F - 35.1 °F 74% 30.08 in 10.0 mi Calm Calm - N/A   Clear
2:53 AM 42.1 °F - 33.1 °F 70% 30.09 in 10.0 mi Calm Calm - N/A   Clear
3:53 AM 36.0 °F - 30.9 °F 82% 30.10 in 10.0 mi Calm Calm - N/A   Clear
4:53 AM 34.0 °F - 30.0 °F 85% 30.12 in 10.0 mi Calm Calm - N/A   Clear
5:53 AM 33.1 °F - 28.9 °F 85% 30.12 in 10.0 mi Calm Calm - N/A   Clear
7:53 AM 30.9 °F - 26.1 °F 82% 30.15 in 10.0 mi Calm Calm - N/A   Clear
8:53 AM 37.9 °F - 34.0 °F 86% 30.16 in 10.0 mi Calm Calm - N/A   Clear
9:53 AM 46.0 °F 44.8 °F 36.0 °F 68% 30.16 in 10.0 mi South 3.5 mph - N/A   Clear
10:53 AM 52.0 °F - 34.0 °F 50% 30.15 in 10.0 mi SSE 6.9 mph - N/A   Clear
12:53 PM 55.0 °F - 33.1 °F 43% 30.12 in 10.0 mi South 5.8 mph - N/A   Clear
1:53 PM 57.0 °F - 34.0 °F 42% 30.09 in 10.0 mi Variable 5.8 mph - N/A   Clear
2:53 PM 57.9 °F - 33.1 °F 39% 30.07 in 10.0 mi SSW 9.2 mph - N/A   Clear
3:53 PM 60.1 °F - 33.1 °F 36% 30.05 in 10.0 mi South 8.1 mph - N/A   Clear
4:53 PM 59.0 °F - 34.0 °F 39% 30.01 in 10.0 mi SSE 12.7 mph - N/A   Clear
5:53 PM 57.0 °F - 35.1 °F 44% 30.01 in 10.0 mi SSE 8.1 mph - N/A   Clear
6:53 PM 53.1 °F - 34.0 °F 48% 30.00 in 10.0 mi SSE 6.9 mph - N/A   Clear
7:53 PM 48.9 °F - 34.0 °F 56% 30.00 in 10.0 mi SSE 5.8 mph - N/A   Clear
8:53 PM 48.0 °F - 34.0 °F 58% 30.00 in 10.0 mi SSE 5.8 mph - N/A   Clear
9:53 PM 48.0 °F - 34.0 °F 58% 29.98 in 10.0 mi South 8.1 mph - N/A   Clear
10:53 PM 50.0 °F - 34.0 °F 54% 29.96 in 10.0 mi South 12.7 mph - N/A   Clear
11:53 PM 50.0 °F - 34.0 °F 54% 29.94 in 10.0 mi South 10.4 mph - N/A   Clear